Location: Izdebno
(52.6670°N, 16.2170°E)
Time: 03:00:16
(UTC+02:00)

SR - Pass Details

Date: 28 February 2024
Orbit: 577 x 862 km, 66.7° (Epoch: 22 April)

Event Time Altitude Azimuth Distance (km) Brightness Sun altitude
Rises 15:08:08 0° 220° (SW) 3,437 ? 18.2°
Reaches altitude 10° 15:10:38 10° 222° (SW) 2,495 ? 18.0°
Maximum altitude 15:16:28 82° 310° (NW) 853 ? 17.3°
Drops below altitude 10° 15:22:02 10° 39° (NE) 2,390 ? 16.7°
Sets 15:24:24 0° 40° (NE) 3,284 ? 16.4°
